Location: ??????????
(48.5701°N, 37.7703°E)
Time: 22:38:34
(UTC+00:00)

Lacrosse 5 - Pass Details

Date: 14 July 2020
Orbit: 717 x 720 km, 57.0° (Epoch: 09 August)

Event Time Altitude Azimuth Distance (km) Brightness Sun altitude
Rises 00:11:15 0° 274° (W) 3,123 4.8 -11.6°
Reaches altitude 10° 00:13:50 10° 284° (WNW) 2,203 4.2 -11.3°
Maximum altitude 00:18:27 34° 349° (N) 1,174 3.4 -10.9°
Drops below altitude 10° 00:23:04 10° 55° (NE) 2,207 5.8 -10.4°
Sets 00:25:40 0° 65° (ENE) 3,128 6.5 -10.1°
